[[{"header":{"parameterUnit":"m.s-1","parameterCategory":1,"la1":30.2991,"la2":30.254,"lo1":-89.0895,"lo2":-89.0444,"dy":0.0017,"dx":0.0017,"nx":28,"ny":28,"refTime":"2025-06-05T09:00:00:Z","depth":0,"parameterNumber":2,"parameterNumberName":"U-component_of_WINDS"},"data":[0,0,0,0,0,0,0,0,0,0,0,0,0,0,0,0,0,0,0,0,0,0,0,0,0,0,0,0,0,0,0,0,0,0,0,0,0,0,0,0,0,0,0,0,0,0,0,0,0,0,0,0,0,0,0,0,0,0,-0.9316,-0.9316,0,-0.9342,-0.9343,-0.9343,-0.9363,-0.9363,-0.9363,-0.9363,-0.939,-0.939,-0.9391,0,0,0,0,0,0,0,0,0,0,0,0,0,-0.9283,-0.9284,-0.9316,-0.9316,-0.9316,-0.9342,-0.9343,-0.9343,-0.9363,-0.9363,-0.9363,-0.9363,-0.939,-0.939,-0.9391,0,0,0,0,0,0,0,0,0,0,0,0,0,-0.9302,-0.9284,-0.9316,-0.933,-0.9331,-0.9342,-0.9343,-0.9343,-0.9363,-0.9363,-0.9363,-0.9364,-0.9389,-0.939,-0.9391,-0.939,0,0,-0.9393,-0.9394,0,0,0,0,0,0,0,0,-0.9301,-0.9303,-0.9327,-0.9329,-0.933,-0.935,-0.9341,-0.9359,-0.9363,-0.9351,-0.9363,-0.9364,-0.9376,-0.9378,-0.9382,-0.9391,-0.9393,-0.9393,-0.9394,-0.9394,-0.9394,0,0,0,0,0,0,0,-0.93,-0.9302,-0.9326,-0.9327,-0.9329,-0.9335,-0.9338,-0.9344,-0.9361,-0.9352,-0.9353,-0.9356,-0.9377,-0.9381,-0.9383,-0.9393,-0.9393,-0.9394,-0.9395,-0.9395,-0.9404,-0.9404,0,0,0,0,0,0,-0.9296,-0.9301,-0.9325,-0.9327,-0.9316,-0.9335,-0.9338,-0.9343,-0.9361,-0.9365,-0.9356,-0.9357,-0.938,-0.9382,-0.9384,-0.9385,-0.9394,-0.9395,-0.9395,-0.9404,-0.9404,-0.9404,0,0,0,0,0,0,-0.9295,-0.9298,-0.9324,-0.9314,-0.9318,-0.9335,-0.934,-0.9343,-0.9348,-0.9365,-0.9368,-0.9357,-0.938,-0.9383,-0.9389,-0.9386,-0.9395,-0.9396,-0.9404,-0.9404,-0.9404,-0.9386,0,0,0,0,0,0,-0.9294,-0.9298,-0.9297,-0.9314,-0.9319,-0.9328,-0.934,-0.9344,-0.9349,-0.9351,-0.9367,-0.937,-0.9381,-0.9388,-0.939,-0.9387,-0.9397,-0.9405,-0.9404,-0.9404,-0.9387,-0.9385,-0.9384,0,0,0,0,0,-0.9293,-0.9291,-0.9297,-0.93,-0.9319,-0.9328,-0.9331,-0.9344,-0.9349,-0.9349,-0.936,-0.9369,-0.9386,-0.9388,-0.939,-0.9388,-0.9405,-0.9404,-0.9404,-0.9388,-0.9386,-0.9384,0,0,0,0,0,0,-0.9273,-0.9293,-0.9301,-0.9304,-0.9314,-0.9331,-0.9332,-0.9341,-0.9349,-0.9351,-0.9366,-0.937,-0.9374,-0.9382,-0.9383,-0.9389,-0.9397,-0.9397,-0.9384,-0.9382,-0.938,-0.9378,-0.9397,0,0,0,0,0,-0.9269,-0.9275,-0.9293,-0.9294,-0.9299,-0.9314,-0.9319,-0.9328,-0.9339,-0.9344,-0.9355,-0.9366,-0.9374,-0.9378,-0.9386,-0.9389,-0.9393,-0.9389,-0.9387,-0.9386,-0.9385,-0.9388,-0.9386,-0.9402,-0.9402,-0.9402,0,0,-0.926,-0.9272,-0.9275,-0.929,-0.9299,-0.9305,-0.9318,-0.9323,-0.9328,-0.9345,-0.9351,-0.936,-0.9373,-0.9377,-0.9379,-0.9384,-0.9382,-0.9385,-0.9384,-0.9384,-0.9387,-0.9386,-0.9384,-0.9402,-0.9402,-0.9402,0,0,-0.9247,-0.9257,-0.926,-0.9269,-0.9283,-0.9293,-0.9294,-0.9311,-0.9317,-0.9324,-0.9337,-0.9343,-0.9356,-0.9365,-0.9371,-0.9364,-0.9373,-0.9366,-0.9357,-0.9359,-0.9358,-0.9357,-0.9355,-0.9354,-0.9366,-0.9366,-0.9366,0,-0.9235,-0.9244,-0.9259,-0.9265,-0.9271,-0.9287,-0.929,-0.9298,-0.9314,-0.9318,-0.9323,-0.9341,-0.935,-0.9357,-0.9356,-0.936,-0.9362,-0.9364,-0.9357,-0.9356,-0.9356,-0.9354,-0.9353,-0.9365,-0.9365,-0.9365,-0.9365,0,-0.9228,-0.9235,-0.9235,-0.9251,-0.9258,-0.9261,-0.9277,-0.9282,-0.9292,-0.9302,-0.9309,-0.9322,-0.9333,-0.9336,-0.9345,-0.9345,-0.9347,-0.9354,-0.9362,-0.9353,-0.9351,-0.9351,-0.9364,-0.9364,-0.9364,-0.9364,0,0,-0.9202,-0.9227,-0.9227,-0.9234,-0.9252,-0.9257,-0.9263,-0.9274,-0.9278,-0.9289,-0.9294,-0.9306,-0.9313,-0.932,-0.933,-0.9333,-0.9327,-0.934,-0.9341,-0.9337,-0.9328,-0.9322,-0.932,-0.9333,-0.9333,-0.9333,-0.9327,0,-0.9192,-0.9202,-0.9216,-0.9221,-0.9228,-0.9245,-0.9249,-0.9261,-0.9271,-0.9279,-0.929,-0.9298,-0.9307,-0.9312,-0.9315,-0.9327,-0.9325,-0.9328,-0.9338,-0.9338,-0.9333,-0.932,-0.9313,-0.9306,-0.9326,-0.9326,-0.9326,0,-0.918,-0.9191,-0.9197,-0.9215,-0.9219,-0.9223,-0.9235,-0.9242,-0.9256,-0.9263,-0.9272,-0.9284,-0.9291,-0.9298,-0.9308,-0.931,-0.9315,-0.9322,-0.9322,-0.9323,-0.9331,-0.932,-0.9304,-0.9303,-0.9325,-0.9325,-0.9325,0,-0.916,-0.9176,-0.9182,-0.9188,-0.921,-0.9212,-0.9221,-0.9235,-0.9242,-0.9253,-0.9257,-0.9269,-0.9275,-0.9284,-0.9299,-0.9303,-0.9308,-0.9317,-0.9314,-0.9314,-0.9313,-0.9313,-0.9298,-0.9318,-0.9318,-0.9318,-0.9318,0,-0.9147,-0.915,-0.9174,-0.9177,-0.9181,-0.9199,-0.9203,-0.9213,-0.9226,-0.9232,-0.9247,-0.9253,-0.9272,-0.928,-0.9292,-0.9299,-0.9302,-0.9308,-0.9311,-0.9306,-0.9305,-0.9309,-0.931,-0.9318,-0.9318,-0.9318,-0.9318,0,-0.9124,-0.914,-0.9148,-0.9168,-0.9173,-0.9176,-0.9193,-0.9197,-0.9209,-0.9217,-0.922,-0.9239,-0.9249,-0.9265,-0.928,-0.9288,-0.9293,-0.9298,-0.9288,-0.929,-0.9286,-0.9286,-0.9273,-0.9272,-0.9293,-0.9292,-0.9292,0,-0.9114,-0.9117,-0.9138,-0.9143,-0.9152,-0.9161,-0.9168,-0.9186,-0.9192,-0.9209,-0.9212,-0.9224,-0.9234,-0.925,-0.9265,-0.9277,-0.9282,-0.9277,-0.9284,-0.9279,-0.9282,-0.9281,-0.9282,-0.9274,-0.9274,-0.9274,-0.9274,0,-0.9094,-0.9103,-0.9112,-0.9125,-0.9133,-0.9144,-0.9156,-0.916,-0.918,-0.9187,-0.9198,-0.9206,-0.9223,-0.9234,-0.9249,-0.9258,-0.9269,-0.9272,-0.9272,-0.9266,-0.9261,-0.9264,-0.9283,-0.9272,-0.9272,-0.9272,-0.9272,-0.9272,-0.9077,-0.9081,-0.9097,-0.9107,-0.9118,-0.9129,-0.9135,-0.9148,-0.9158,-0.9172,-0.9183,-0.9193,-0.9209,-0.9229,-0.9239,-0.9248,-0.9252,-0.9252,-0.9252,-0.9252,-0.925,-0.926,-0.925,-0.925,-0.9251,-0.9251,-0.9251,0,-0.9058,-0.907,-0.9079,-0.9096,-0.9104,-0.9115,-0.9129,-0.9136,-0.9145,-0.9159,-0.9169,-0.9182,-0.9194,-0.9211,-0.9224,-0.9228,-0.9234,-0.9231,-0.9231,-0.9233,-0.9245,-0.9244,-0.9227,-0.9227,-0.9227,-0.9227,-0.9227,-0.9227,-0.9049,-0.9056,-0.9066,-0.908,-0.9091,-0.9102,-0.9109,-0.912,-0.9131,-0.9145,-0.9155,-0.9167,-0.9182,-0.9197,-0.9208,-0.9213,-0.9217,-0.9213,-0.9219,-0.923,-0.9232,-0.9234,-0.9233,-0.9213,-0.9213,-0.9206,-0.9206,-0.9206]},{"header":{"parameterUnit":"m.s-1","parameterCategory":1,"la1":30.2991,"la2":30.254,"lo1":-89.0895,"lo2":-89.0444,"dy":0.0017,"dx":0.0017,"nx":28,"ny":28,"refTime":"2025-06-05T09:00:00:Z","depth":0,"parameterNumber":3,"parameterNumberName":"V-component_of_WINDS"},"data":[0,0,0,0,0,0,0,0,0,0,0,0,0,0,0,0,0,0,0,0,0,0,0,0,0,0,0,0,0,0,0,0,0,0,0,0,0,0,0,0,0,0,0,0,0,0,0,0,0,0,0,0,0,0,0,0,0,0,-0.4235,-0.4236,0,-0.4302,-0.4302,-0.4303,-0.434,-0.434,-0.434,-0.434,-0.4411,-0.4413,-0.4415,0,0,0,0,0,0,0,0,0,0,0,0,0,-0.4144,-0.4145,-0.4235,-0.4236,-0.4237,-0.4301,-0.4302,-0.4303,-0.434,-0.434,-0.434,-0.434,-0.4411,-0.4413,-0.4415,0,0,0,0,0,0,0,0,0,0,0,0,0,-0.4194,-0.4146,-0.4235,-0.4263,-0.4266,-0.4301,-0.4302,-0.4304,-0.434,-0.434,-0.434,-0.434,-0.441,-0.4413,-0.4415,-0.4429,0,0,-0.4424,-0.4425,0,0,0,0,0,0,0,0,-0.4191,-0.4197,-0.4258,-0.4261,-0.4264,-0.4312,-0.4296,-0.4346,-0.434,-0.4312,-0.434,-0.434,-0.4379,-0.4384,-0.4396,-0.4433,-0.4436,-0.4424,-0.4426,-0.4427,-0.4427,0,0,0,0,0,0,0,-0.4188,-0.4195,-0.4262,-0.4259,-0.4263,-0.4273,-0.428,-0.4306,-0.4344,-0.4314,-0.4317,-0.4324,-0.438,-0.4393,-0.4398,-0.4437,-0.4424,-0.4426,-0.4428,-0.4429,-0.4489,-0.4489,0,0,0,0,0,0,-0.4179,-0.4192,-0.4259,-0.4264,-0.4227,-0.4275,-0.4283,-0.4297,-0.4343,-0.4351,-0.4324,-0.4326,-0.4389,-0.4395,-0.4401,-0.4421,-0.4427,-0.4429,-0.4431,-0.4489,-0.4489,-0.4489,0,0,0,0,0,0,-0.4177,-0.4185,-0.4257,-0.4228,-0.4238,-0.4276,-0.4292,-0.4298,-0.4311,-0.4351,-0.4358,-0.433,-0.4389,-0.4397,-0.4422,-0.4424,-0.443,-0.4433,-0.4489,-0.4489,-0.4489,-0.446,0,0,0,0,0,0,-0.4174,-0.4184,-0.4189,-0.4228,-0.424,-0.4276,-0.4292,-0.4299,-0.4315,-0.4318,-0.4358,-0.4365,-0.439,-0.4418,-0.4425,-0.4427,-0.4435,-0.4489,-0.4489,-0.4489,-0.4461,-0.4459,-0.4457,0,0,0,0,0,-0.4171,-0.4178,-0.4189,-0.4197,-0.4246,-0.4276,-0.4282,-0.4309,-0.4315,-0.4321,-0.4347,-0.4364,-0.4422,-0.442,-0.4428,-0.4432,-0.4489,-0.4489,-0.4489,-0.4462,-0.446,-0.4457,0,0,0,0,0,0,-0.4139,-0.4184,-0.4196,-0.4216,-0.4242,-0.4282,-0.429,-0.4306,-0.4331,-0.4333,-0.4366,-0.4375,-0.4397,-0.4417,-0.4414,-0.4448,-0.4458,-0.4459,-0.4434,-0.4432,-0.443,-0.4425,-0.4437,0,0,0,0,0,-0.4134,-0.4153,-0.4192,-0.4206,-0.4218,-0.4251,-0.4265,-0.4284,-0.4312,-0.4324,-0.4351,-0.4379,-0.4403,-0.4419,-0.4444,-0.4464,-0.4474,-0.4471,-0.4469,-0.4467,-0.4468,-0.4482,-0.4481,-0.4489,-0.4489,-0.4489,0,0,-0.4124,-0.4151,-0.4162,-0.42,-0.4222,-0.4242,-0.426,-0.4281,-0.4296,-0.4327,-0.4352,-0.4373,-0.4407,-0.4429,-0.4441,-0.4447,-0.4468,-0.4467,-0.4466,-0.4468,-0.4482,-0.4481,-0.448,-0.4489,-0.4489,-0.4489,0,0,-0.4117,-0.4139,-0.4154,-0.4175,-0.4208,-0.423,-0.4234,-0.4272,-0.4286,-0.4312,-0.4336,-0.4355,-0.4397,-0.442,-0.4437,-0.4439,-0.4456,-0.4446,-0.4437,-0.4449,-0.4449,-0.4448,-0.445,-0.445,-0.4447,-0.4447,-0.4447,0,-0.4101,-0.4131,-0.4159,-0.4178,-0.4195,-0.4223,-0.4239,-0.4259,-0.4298,-0.431,-0.4315,-0.4369,-0.4393,-0.4422,-0.4422,-0.4435,-0.4441,-0.4442,-0.4446,-0.4446,-0.4446,-0.4448,-0.4448,-0.4446,-0.4446,-0.4446,-0.4446,0,-0.4111,-0.4132,-0.414,-0.4176,-0.4194,-0.4211,-0.4243,-0.4258,-0.4275,-0.4297,-0.4323,-0.4354,-0.4385,-0.4394,-0.4411,-0.4425,-0.4428,-0.444,-0.445,-0.4444,-0.4446,-0.4447,-0.4444,-0.4444,-0.4445,-0.4445,0,0,-0.4085,-0.4137,-0.4139,-0.4157,-0.4195,-0.4212,-0.4231,-0.4261,-0.4274,-0.4301,-0.4318,-0.4353,-0.4364,-0.4383,-0.4404,-0.4415,-0.4415,-0.4425,-0.4427,-0.4423,-0.4434,-0.4425,-0.4426,-0.4427,-0.4427,-0.4427,-0.4432,0,-0.4084,-0.4118,-0.4144,-0.4169,-0.4189,-0.4216,-0.4233,-0.4259,-0.428,-0.4302,-0.4326,-0.435,-0.4362,-0.4374,-0.4386,-0.4413,-0.4418,-0.4413,-0.4445,-0.4446,-0.4436,-0.4427,-0.4417,-0.442,-0.4433,-0.4433,-0.4433,0,-0.4086,-0.4111,-0.4138,-0.4175,-0.4184,-0.4199,-0.4229,-0.4248,-0.4279,-0.4294,-0.4316,-0.4337,-0.436,-0.4368,-0.44,-0.4396,-0.4411,-0.4426,-0.4427,-0.4431,-0.4439,-0.4431,-0.4421,-0.4421,-0.4434,-0.4434,-0.4434,0,-0.4065,-0.4105,-0.4127,-0.4141,-0.4184,-0.4194,-0.4213,-0.4244,-0.426,-0.4287,-0.4299,-0.4328,-0.4344,-0.4367,-0.4396,-0.4399,-0.4426,-0.4436,-0.444,-0.4439,-0.4445,-0.4444,-0.4437,-0.4453,-0.4453,-0.4453,-0.4453,0,-0.4061,-0.4076,-0.4118,-0.4131,-0.415,-0.418,-0.4198,-0.4219,-0.4247,-0.4265,-0.4291,-0.4308,-0.4345,-0.4368,-0.439,-0.4414,-0.4421,-0.4435,-0.4441,-0.4433,-0.4431,-0.4443,-0.4444,-0.4454,-0.4454,-0.4454,-0.4453,0,-0.404,-0.4069,-0.4094,-0.4133,-0.4143,-0.4155,-0.419,-0.4204,-0.4227,-0.425,-0.4258,-0.4294,-0.4322,-0.4353,-0.4391,-0.4406,-0.4429,-0.4437,-0.4418,-0.4421,-0.4424,-0.4423,-0.4424,-0.4426,-0.4441,-0.4441,-0.4441,0,-0.4036,-0.4048,-0.4089,-0.4103,-0.412,-0.4143,-0.416,-0.4191,-0.4208,-0.4244,-0.4254,-0.4284,-0.4309,-0.4351,-0.4382,-0.4412,-0.4421,-0.442,-0.4426,-0.4418,-0.4422,-0.4421,-0.4423,-0.4418,-0.4418,-0.4417,-0.4417,0,-0.4025,-0.4038,-0.4061,-0.409,-0.4109,-0.4133,-0.4158,-0.4168,-0.4205,-0.4223,-0.425,-0.427,-0.4308,-0.4338,-0.4371,-0.4392,-0.4411,-0.4415,-0.4418,-0.4409,-0.4398,-0.4405,-0.4413,-0.4415,-0.4415,-0.4415,-0.4415,-0.4415,-0.4013,-0.4025,-0.4056,-0.4081,-0.4103,-0.4126,-0.4141,-0.4166,-0.419,-0.4223,-0.424,-0.4268,-0.43,-0.4346,-0.4367,-0.439,-0.4396,-0.44,-0.4401,-0.4401,-0.4399,-0.4394,-0.4396,-0.4396,-0.4396,-0.4396,-0.4397,0,-0.4003,-0.4024,-0.4047,-0.4081,-0.4101,-0.4116,-0.4145,-0.4161,-0.4185,-0.4213,-0.4237,-0.4269,-0.4298,-0.4331,-0.4362,-0.4374,-0.4384,-0.4381,-0.4381,-0.4385,-0.4391,-0.4386,-0.4373,-0.4373,-0.4373,-0.4373,-0.4373,-0.4373,-0.4001,-0.4023,-0.404,-0.4074,-0.4096,-0.4122,-0.4138,-0.4159,-0.4182,-0.4216,-0.424,-0.4261,-0.4291,-0.4325,-0.4352,-0.4361,-0.4371,-0.4366,-0.4378,-0.4383,-0.4385,-0.4387,-0.4382,-0.4368,-0.4368,-0.437,-0.437,-0.437]}]]